Location: Jaite
(41.2884°N, 81.5737°W)
Time: 06:09:59
(UTC+00:00)

SJ 16-02 - Pass Details

Date: 15 November 2025
Orbit: 585 x 594 km, 75.0° (Epoch: 04 December)

Event Time Altitude Azimuth Distance (km) Brightness Sun altitude
Rises 00:08:19 0° 194° (SSW) 2,820 5.0 -22.7°
Reaches altitude 10° 00:10:32 10° 193° (SSW) 1,924 4.1 -23.1°
Enters shadow 00:14:13 64° 175° (S) 660 1.4 -23.8°
